Chievres, Belgium

6:05 AM CEST on August 21, 2017 (GMT +0200)
Chievres Air Base

Weather History for EBCV - August, 2013

Change the Weather History Date:

Thursday, August 29, 2013

  Actual Average Record
Temperature  
Mean Temperature 62 °F -  
Max Temperature 74 °F 62 °F 77 °F (2012)
Min Temperature 50 °F 51 °F 46 °F (2007)
Degree Days  
Heating Degree Days 3    
Growing Degree Days 12 (Base 50)    
Moisture  
Dew Point 53 °F    
Average Humidity 84    
Maximum Humidity 100    
Minimum Humidity 34    
Precipitation  
Precipitation 0.00 in - - ()
Sea Level Pressure  
Sea Level Pressure 30.19 in    
Wind  
Wind Speed 2 mph ()    
Max Wind Speed 6 mph    
Max Gust Speed -    
Visibility 4.0 miles    
Events Fog    
Averages and records for this station are not official NWS values.
T = Trace of Precipitation, MM = Missing Value Source: Averaged Metar Reports

Daily Weather History Graph

Daily Weather History Graph

Search for Another Location

Airport or City:

Trip Planner

Search our weather history database for the weather conditions in past years. The results will help you decide how hot, cold, wet, or windy it might be!

Date:

Astronomy

Aug. 29, 2013 Rise Set
Actual Time 6:54 AM CEST 8:35 PM CEST
Civil Twilight 6:19 AM CEST 9:10 PM CEST
Nautical Twilight 5:37 AM CEST 9:52 PM CEST
Astronomical Twilight 4:50 AM CEST 10:38 PM CEST
Moon 12:15 AM CEST (8/29) 4:11 PM CEST (8/29)
Length of Visible Light 14h 50m
Length of Day
13h 41m
Last Quarter, 40% of the Moon is Illuminated
Aug 29
Last Quarter
Sep 5
New
Sep 12
First Quarter
Sep 19
Full
Sep 27
Last Quarter

Hourly Weather History & Observations

Time (CEST) Temp. Dew Point Humidity Pressure Visibility Wind Dir Wind Speed Gust Speed Precip Events Conditions
12:25 AM 53.6 °F 51.8 °F 94% 30.18 in 6.2 mi Variable 1.2 mph - N/A   Unknown
1:05 AM 53.6 °F 51.8 °F 94% 30.18 in 4.3 mi Variable 1.2 mph - N/A   Unknown
1:25 AM 51.8 °F 51.8 °F 100% 30.18 in 3.7 mi Variable 1.2 mph - N/A   Unknown
2:00 AM 52 °F 51 °F 95% 30.20 in 3 mi 2.2 mph - -  
2:04 AM 51.8 °F 51.8 °F 100% 30.18 in - Variable 1.2 mph - N/A   Unknown
2:24 AM 51.8 °F 50.0 °F 94% 30.18 in 3.7 mi Variable 1.2 mph - N/A   Unknown
2:25 AM 51.8 °F 50.0 °F 94% 30.18 in 3.7 mi Variable 1.2 mph - N/A   Unknown
3:04 AM 51.8 °F 50.0 °F 94% 30.18 in - Variable 2.3 mph - N/A   Partly Cloudy
3:08 AM 51.8 °F 50.0 °F 94% 30.18 in - Variable 2.3 mph - N/A   Partly Cloudy
3:25 AM 50.0 °F 50.0 °F 100% 30.18 in - Variable 2.3 mph - N/A   Scattered Clouds
4:25 AM 51.8 °F 51.8 °F 100% 30.18 in 1.1 mi Variable 2.3 mph - N/A   Partly Cloudy
4:57 AM 50.0 °F 50.0 °F 100% 30.18 in 0.9 mi Variable 2.3 mph - N/A   Unknown
5:00 AM 51 °F 50 °F 96% 30.20 in 1 mi 2.2 mph - -   Mist
5:04 AM 50.0 °F 50.0 °F 100% 30.18 in 0.4 mi Variable 2.3 mph - N/A   Partly Cloudy
5:18 AM 51.8 °F 50.0 °F 94% 30.18 in 1.1 mi Variable 2.3 mph - N/A   Partly Cloudy
5:25 AM 50.0 °F 50.0 °F 100% 30.18 in 1.2 mi Variable 2.3 mph - N/A   Scattered Clouds
5:34 AM 50.0 °F 50.0 °F 100% 30.18 in 0.8 mi Variable 2.3 mph - N/A   Scattered Clouds
5:40 AM 51.8 °F 51.8 °F 100% 30.18 in - Variable 2.3 mph - N/A   Scattered Clouds
6:25 AM 51.8 °F 51.8 °F 100% 30.18 in 0.0 mi Variable 2.3 mph - N/A   Unknown
7:25 AM 50.0 °F 50.0 °F 100% 30.18 in 0.1 mi Variable 2.3 mph - N/A   Mostly Cloudy
8:00 AM 51 °F 51 °F 100% 30.22 in 0 mi 2.2 mph - - Fog Fog
8:25 AM 51.8 °F 51.8 °F 100% 30.21 in 0.0 mi Variable 2.3 mph - N/A   Unknown
9:25 AM 55.4 °F 55.4 °F 100% 30.21 in 0.1 mi Variable 2.3 mph - N/A   Unknown
10:25 AM 57.2 °F 57.2 °F 100% 30.21 in 0.2 mi WNW 3.5 mph - N/A   Unknown
11:00 AM 58 °F 58 °F 100% 30.23 in 1 mi 2.2 mph - -   Clear
11:25 AM 60.8 °F 59.0 °F 94% 30.21 in - Variable 2.3 mph - N/A   Mostly Cloudy
11:44 AM 62.6 °F 59.0 °F 88% 30.21 in 3.1 mi West 3.5 mph - N/A   Scattered Clouds
11:45 AM 62.6 °F 59.0 °F 88% 30.21 in - West 3.5 mph - N/A   Scattered Clouds
11:56 AM 64.4 °F 59.0 °F 83% 30.21 in 3.1 mi Variable 2.3 mph - N/A   Scattered Clouds
12:25 PM 66.2 °F 57.2 °F 73% 30.21 in 4.3 mi Variable 3.5 mph - N/A   Scattered Clouds
12:44 PM 68.0 °F 59.0 °F 73% 30.21 in 6.2 mi NW 3.5 mph - N/A   Scattered Clouds
1:25 PM 69.8 °F 55.4 °F 60% 30.21 in 6.2 mi Variable 2.3 mph - N/A   Partly Cloudy
2:00 PM 70 °F 54 °F 46% 30.21 in 9 mi WNW 4.5 mph - -   Clear
2:25 PM 71.6 °F 53.6 °F 53% 30.18 in 6.2 mi Variable 2.3 mph - N/A   Partly Cloudy
3:25 PM 71.6 °F 51.8 °F 50% 30.18 in 6.2 mi West 3.5 mph - N/A   Scattered Clouds
4:25 PM 73.4 °F 51.8 °F 47% 30.18 in 6.2 mi West 4.6 mph - N/A   Partly Cloudy
5:00 PM 74 °F 51 °F 34% 30.17 in 11 mi 2.2 mph - -  
5:25 PM 73.4 °F 51.8 °F 47% 30.15 in 6.2 mi WSW 5.8 mph - N/A   Partly Cloudy
6:25 PM 73.4 °F 51.8 °F 47% 30.15 in 6.2 mi WSW 4.6 mph - N/A   Partly Cloudy
7:25 PM 71.6 °F 53.6 °F 53% 30.15 in 6.2 mi Variable 2.3 mph - N/A   Unknown
8:00 PM 68 °F 57 °F 58% 30.17 in 12 mi 2.2 mph - -  
8:25 PM 64.4 °F 57.2 °F 77% 30.15 in 6.2 mi Variable 1.2 mph - N/A   Unknown
9:04 PM 60.8 °F 55.4 °F 82% 30.18 in 3.7 mi Variable 2.3 mph - N/A   Unknown
9:16 PM 60.8 °F 55.4 °F 82% 30.18 in 6.2 mi Variable 1.2 mph - N/A   Unknown
9:25 PM 59.0 °F 55.4 °F 88% 30.18 in 6.2 mi Variable 2.3 mph - N/A   Unknown
10:25 PM 57.2 °F 53.6 °F 88% 30.18 in 6.2 mi WSW 4.6 mph - N/A   Unknown
10:55 PM 59.0 °F 53.6 °F 82% 30.18 in 4.3 mi West 4.6 mph - N/A   Unknown
11:00 PM 58 °F 54 °F 81% 30.19 in 4 mi WSW 4.5 mph - -  
11:25 PM 57.2 °F 53.6 °F 88% 30.18 in 4.3 mi SW 3.5 mph - N/A   Unknown
11:47 PM 55.4 °F 53.6 °F 94% 30.18 in 5.0 mi WSW 4.6 mph - N/A   Unknown
11:51 PM 55.4 °F 53.6 °F 94% 30.18 in 4.3 mi WSW 4.6 mph - N/A   Unknown